When you browse on this site, cookies collect data to enhance your experience and personalize the content and advertising you see.
Visit our Privacy Policy to learn more. By continuing to use the site, you agree to this use of cookies and data.

Meteo pe oră la Dziadowo

Astăzi, 26 Septembrie, Sâmbătă

Timp Temperatura Precipitaţii Vânt Presiune Umiditate
00:00 +13°C° 0 mm 2 m/s 745 mmHg 90%
01:00 +12°C° 0 mm 2 m/s 745 mmHg 89%
02:00 +12°C° 0 mm 2 m/s 745 mmHg 89%
03:00 +12°C° 0 mm 2 m/s 745 mmHg 89%
04:00 +12°C° 0 mm 2 m/s 745 mmHg 88%
05:00 +11°C° 0 mm 3 m/s 745 mmHg 87%
06:00 +12°C° 0 mm 3 m/s 744 mmHg 87%
07:00 +13°C° 0 mm 4 m/s 744 mmHg 86%
08:00 +13°C° 0.1 mm 5 m/s 744 mmHg 86%
09:00 +14°C° 0.1 mm 5 m/s 744 mmHg 86%
10:00 +14°C° 0.1 mm 6 m/s 744 mmHg 87%
11:00 +14°C° 1.2 mm 6 m/s 744 mmHg 90%
12:00 +15°C° 1.2 mm 6 m/s 743 mmHg 92%
13:00 +15°C° 1.2 mm 7 m/s 743 mmHg 95%
14:00 +16°C° 0.1 mm 6 m/s 742 mmHg 91%
15:00 +17°C° 0.1 mm 6 m/s 742 mmHg 88%
16:00 +19°C° 0.1 mm 6 m/s 742 mmHg 84%
17:00 +19°C° 0.6 mm 6 m/s 742 mmHg 86%
18:00 +17°C° 0.6 mm 5 m/s 742 mmHg 88%
19:00 +17°C° 0.6 mm 5 m/s 743 mmHg 90%
20:00 +16°C° 0 mm 5 m/s 743 mmHg 91%
21:00 +17°C° 0 mm 4 m/s 744 mmHg 92%
22:00 +15°C° 0 mm 4 m/s 745 mmHg 94%
23:00 +16°C° 0 mm 3 m/s 745 mmHg 94%

Mâine, 27 Septembrie, Duminică

Timp Temperatura Precipitaţii Vânt Presiune Umiditate
00:00 +14°C° 0 mm 3 m/s 746 mmHg 94%
01:00 +14°C° 0 mm 3 m/s 746 mmHg 94%
02:00 +14°C° 0.1 mm 2 m/s 746 mmHg 93%
03:00 +14°C° 0.1 mm 2 m/s 746 mmHg 91%
04:00 +14°C° 0.1 mm 1 m/s 746 mmHg 90%
05:00 +14°C° 0.1 mm 2 m/s 746 mmHg 91%
06:00 +14°C° 0.1 mm 3 m/s 747 mmHg 92%
07:00 +14°C° 0.1 mm 3 m/s 747 mmHg 93%
08:00 +15°C° 0 mm 4 m/s 747 mmHg 87%
09:00 +17°C° 0 mm 5 m/s 747 mmHg 82%
10:00 +19°C° 0 mm 6 m/s 747 mmHg 76%
11:00 +20°C° 0 mm 6 m/s 747 mmHg 73%
12:00 +21°C° 0 mm 6 m/s 747 mmHg 70%
13:00 +22°C° 0 mm 6 m/s 747 mmHg 67%
14:00 +21°C° 0 mm 6 m/s 748 mmHg 70%
15:00 +21°C° 0 mm 5 m/s 748 mmHg 73%
16:00 +20°C° 0 mm 5 m/s 748 mmHg 76%
17:00 +19°C° 0.1 mm 5 m/s 748 mmHg 78%
18:00 +19°C° 0.1 mm 4 m/s 748 mmHg 79%
19:00 +18°C° 0.1 mm 4 m/s 749 mmHg 81%
20:00 +17°C° 0 mm 4 m/s 749 mmHg 82%
21:00 +17°C° 0 mm 3 m/s 750 mmHg 83%
22:00 +17°C° 0 mm 3 m/s 750 mmHg 84%
23:00 +16°C° 0 mm 2 m/s 750 mmHg 85%

Poimâine, 28 Septembrie, Luni

Timp Temperatura Precipitaţii Vânt Presiune Umiditate
00:00 +16°C° 0 mm 2 m/s 750 mmHg 86%
01:00 +16°C° 0 mm 1 m/s 750 mmHg 87%
02:00 +15°C° 0.2 mm 2 m/s 750 mmHg 89%
03:00 +15°C° 0.2 mm 2 m/s 750 mmHg 91%
04:00 +15°C° 0.2 mm 2 m/s 750 mmHg 93%
05:00 +13°C° 0.3 mm 3 m/s 751 mmHg 93%
06:00 +13°C° 0.3 mm 3 m/s 751 mmHg 94%
07:00 +13°C° 0.3 mm 3 m/s 751 mmHg 94%
08:00 +13°C° 0.1 mm 4 m/s 751 mmHg 93%
09:00 +13°C° 0.1 mm 4 m/s 752 mmHg 91%
10:00 +12°C° 0.1 mm 5 m/s 752 mmHg 90%
11:00 +13°C° 0.1 mm 5 m/s 752 mmHg 89%
12:00 +13°C° 0.1 mm 4 m/s 752 mmHg 88%
13:00 +13°C° 0.1 mm 4 m/s 753 mmHg 87%
14:00 +13°C° 0.3 mm 5 m/s 753 mmHg 86%
15:00 +13°C° 0.3 mm 5 m/s 753 mmHg 85%
16:00 +13°C° 0.3 mm 5 m/s 753 mmHg 84%
17:00 +12°C° 0.1 mm 4 m/s 753 mmHg 85%
18:00 +12°C° 0.1 mm 4 m/s 753 mmHg 85%
19:00 +12°C° 0.1 mm 3 m/s 754 mmHg 85%
20:00 +12°C° 0 mm 3 m/s 754 mmHg 86%
21:00 +12°C° 0 mm 3 m/s 754 mmHg 86%
22:00 +12°C° 0 mm 3 m/s 754 mmHg 86%
23:00 +12°C° 0.1 mm 4 m/s 754 mmHg 86%

29 Septembrie, Marţi

Timp Temperatura Precipitaţii Vânt Presiune Umiditate
00:00 +11°C° 0.1 mm 4 m/s 754 mmHg 87%
01:00 +11°C° 0.1 mm 4 m/s 754 mmHg 88%
02:00 +11°C° 0.2 mm 4 m/s 755 mmHg 88%
03:00 +11°C° 0.2 mm 3 m/s 755 mmHg 88%
04:00 +11°C° 0.2 mm 3 m/s 755 mmHg 88%
05:00 +11°C° 0.2 mm 3 m/s 755 mmHg 89%
06:00 +11°C° 0.2 mm 3 m/s 755 mmHg 89%
07:00 +10°C° 0.2 mm 2 m/s 755 mmHg 90%
08:00 +12°C° 0.1 mm 2 m/s 756 mmHg 88%
09:00 +12°C° 0.1 mm 1 m/s 756 mmHg 86%
10:00 +13°C° 0.1 mm 1 m/s 756 mmHg 84%
11:00 +14°C° 0 mm 1 m/s 756 mmHg 82%
12:00 +14°C° 0 mm 1 m/s 756 mmHg 80%
13:00 +15°C° 0 mm 1 m/s 756 mmHg 78%
14:00 +15°C° 0 mm 1 m/s 756 mmHg 77%
15:00 +15°C° 0 mm 2 m/s 756 mmHg 77%
16:00 +14°C° 0 mm 3 m/s 756 mmHg 76%
17:00 +14°C° 0 mm 2 m/s 756 mmHg 81%
18:00 +13°C° 0 mm 2 m/s 757 mmHg 85%
19:00 +12°C° 0 mm 2 m/s 757 mmHg 90%
20:00 +12°C° 0 mm 2 m/s 757 mmHg 90%
21:00 +12°C° 0 mm 2 m/s 757 mmHg 90%
22:00 +12°C° 0 mm 2 m/s 757 mmHg 90%
23:00 +11°C° 0 mm 3 m/s 757 mmHg 91%

30 Septembrie, Miercuri

Timp Temperatura Precipitaţii Vânt Presiune Umiditate
00:00 +11°C° 0 mm 3 m/s 756 mmHg 91%
01:00 +11°C° 0 mm 3 m/s 756 mmHg 92%
02:00 +11°C° 0 mm 3 m/s 756 mmHg 92%
03:00 +11°C° 0 mm 4 m/s 756 mmHg 93%
04:00 +12°C° 0 mm 4 m/s 756 mmHg 93%
05:00 +12°C° 0 mm 4 m/s 756 mmHg 93%
06:00 +12°C° 0 mm 3 m/s 756 mmHg 93%
07:00 +13°C° 0 mm 3 m/s 756 mmHg 93%
08:00 +14°C° 0.1 mm 4 m/s 756 mmHg 89%
09:00 +15°C° 0.1 mm 4 m/s 756 mmHg 85%
10:00 +17°C° 0.1 mm 4 m/s 756 mmHg 80%
11:00 +17°C° 0.2 mm 4 m/s 756 mmHg 79%
12:00 +16°C° 0.2 mm 5 m/s 756 mmHg 79%
13:00 +16°C° 0.2 mm 5 m/s 756 mmHg 78%
14:00 +16°C° 0.1 mm 5 m/s 755 mmHg 79%
15:00 +17°C° 0.1 mm 4 m/s 755 mmHg 79%
16:00 +15°C° 0.1 mm 4 m/s 755 mmHg 80%
17:00 +14°C° 0 mm 4 m/s 755 mmHg 84%
18:00 +13°C° 0 mm 3 m/s 755 mmHg 88%
19:00 +12°C° 0 mm 3 m/s 755 mmHg 92%
20:00 +12°C° 0 mm 3 m/s 755 mmHg 92%
21:00 +13°C° 0 mm 2 m/s 755 mmHg 91%
22:00 +13°C° 0 mm 2 m/s 754 mmHg 91%
23:00 +13°C° 0 mm 2 m/s 754 mmHg 92%

1 Octombrie, Joi

Timp Temperatura Precipitaţii Vânt Presiune Umiditate
00:00 +11°C° 0 mm 3 m/s 754 mmHg 92%
01:00 +11°C° 0 mm 3 m/s 754 mmHg 93%
02:00 +11°C° 0 mm 3 m/s 753 mmHg 93%
03:00 +11°C° 0 mm 3 m/s 753 mmHg 94%
04:00 +11°C° 0 mm 3 m/s 753 mmHg 95%
05:00 +11°C° 0 mm 3 m/s 753 mmHg 94%
06:00 +11°C° 0 mm 3 m/s 753 mmHg 94%
07:00 +12°C° 0 mm 2 m/s 752 mmHg 94%
08:00 +12°C° 0 mm 3 m/s 752 mmHg 88%
09:00 +14°C° 0 mm 3 m/s 752 mmHg 82%
10:00 +16°C° 0 mm 3 m/s 752 mmHg 75%
11:00 +17°C° 0 mm 3 m/s 751 mmHg 71%
12:00 +18°C° 0 mm 3 m/s 751 mmHg 67%
13:00 +18°C° 0 mm 3 m/s 751 mmHg 63%
14:00 +18°C° 0 mm 3 m/s 751 mmHg 63%
15:00 +18°C° 0 mm 3 m/s 750 mmHg 64%
16:00 +18°C° 0 mm 3 m/s 750 mmHg 65%
17:00 +17°C° 0 mm 4 m/s 750 mmHg 68%
18:00 +15°C° 0 mm 4 m/s 750 mmHg 72%
19:00 +14°C° 0 mm 5 m/s 750 mmHg 75%
20:00 +14°C° 0 mm 5 m/s 750 mmHg 74%
21:00 +14°C° 0 mm 6 m/s 750 mmHg 72%
22:00 +14°C° 0 mm 6 m/s 750 mmHg 71%
23:00 +14°C° 0.1 mm 6 m/s 750 mmHg 72%
Arată mai mult